Fullerton, CA

10:43 AM PDT on April 25, 2017 (GMT -0700)
Fullerton Municipal

Weather History for KFUL - May, 2013

Change the Weather History Date:

Monday, May 6, 2013

  Actual Average Record
Temperature  
Mean Temperature 65 °F 66 °F  
Max Temperature 70 °F 75 °F 93 °F (2004)
Min Temperature 60 °F 56 °F 53 °F (2007)
Degree Days  
Heating Degree Days 0 1  
Month to date heating degree days 0 11  
Since 1 July heating degree days 726 1205  
Cooling Degree Days 0 2  
Month to date cooling degree days 39 12  
Year to date cooling degree days 170 64  
Growing Degree Days 15 (Base 50)    
Moisture  
Dew Point 55 °F    
Average Humidity 69    
Maximum Humidity 84    
Minimum Humidity 53    
Precipitation  
Precipitation 0.42 in 0.01 in 0.45 in (2005)
Month to date precipitation 0.43 0.09  
Year to date precipitation 2.50 9.40  
Since 1 July precipitation 5.81  
Snow  
Snow 0.00 in - - ()
Month to date snowfall 0.0  
Year to date snowfall 0.0  
Snow Depth 0.00 in    
Sea Level Pressure  
Sea Level Pressure 29.95 in    
Wind  
Wind Speed 7 mph (SSE)    
Max Wind Speed 15 mph    
Max Gust Speed 21 mph    
Visibility 7 miles    
Events Rain    
T = Trace of Precipitation, MM = Missing Value Source: NWS Daily Summary

Daily Weather History Graph

Daily Weather History Graph

Search for Another Location

Airport or City:

Trip Planner

Search our weather history database for the weather conditions in past years. The results will help you decide how hot, cold, wet, or windy it might be!

Date:

Astronomy

May. 06, 2013 Rise Set
Actual Time 5:57 AM PDT 7:39 PM PDT
Civil Twilight 5:30 AM PDT 8:06 PM PDT
Nautical Twilight 4:58 AM PDT 8:39 PM PDT
Astronomical Twilight 4:24 AM PDT 9:13 PM PDT
Moon 3:53 AM PDT (5/6) 4:51 PM PDT (5/6)
Length of Visible Light 14h 35m
Length of Day
13h 41m
Waning Crescent, 10% of the Moon is Illuminated
May 6
Waning Crescent
May 9
New
May 17
First Quarter
May 24
Full
May 31
Last Quarter

Hourly Weather History & Observations

Time (PDT) Temp. Dew Point Humidity Pressure Visibility Wind Dir Wind Speed Gust Speed Precip Events Conditions
12:32 AM 62.6 °F 53.6 °F 72% 29.95 in 6.0 mi ESE 5.8 mph - 0.00 in Rain Light Rain
12:53 AM 61.0 °F 54.0 °F 78% 29.94 in 7.0 mi ESE 5.8 mph - 0.00 in Rain Light Rain
1:18 AM 60.8 °F 55.4 °F 82% 29.93 in 4.0 mi ESE 4.6 mph - 0.00 in Rain Light Rain
1:53 AM 61.0 °F 55.0 °F 81% 29.93 in 8.0 mi ESE 4.6 mph - 0.00 in   Overcast
2:10 AM 60.8 °F 55.4 °F 82% 29.93 in 5.0 mi SE 4.6 mph - 0.01 in Rain Light Rain
2:22 AM 60.8 °F 55.4 °F 82% 29.92 in 2.0 mi ESE 4.6 mph - 0.03 in Rain Rain
2:37 AM 60.8 °F 55.4 °F 82% 29.92 in 6.0 mi ESE 5.8 mph - 0.03 in Rain Light Rain
2:53 AM 61.0 °F 55.9 °F 83% 29.91 in 6.0 mi ESE 3.5 mph - 0.03 in   Haze
3:03 AM 60.8 °F 55.4 °F 82% 29.92 in 8.0 mi ESE 4.6 mph - 0.00 in Rain Light Rain
3:50 AM 60.8 °F 55.4 °F 82% 29.91 in 3.0 mi ESE 5.8 mph - 0.06 in Rain Rain
3:53 AM 60.1 °F 55.0 °F 83% 29.91 in 3.0 mi ESE 4.6 mph - 0.07 in Rain Heavy Rain
3:56 AM 60.8 °F 55.4 °F 82% 29.91 in 2.5 mi SE 4.6 mph - 0.00 in Rain Light Rain
4:04 AM 60.8 °F 55.4 °F 82% 29.91 in 3.0 mi ESE 4.6 mph - 0.02 in Rain Light Rain
4:26 AM 60.8 °F 55.4 °F 82% 29.91 in 1.8 mi East 8.1 mph - 0.06 in Rain Heavy Rain
4:36 AM 60.8 °F 55.4 °F 82% 29.91 in 2.5 mi East 5.8 mph - 0.08 in Rain Rain
4:53 AM 60.1 °F 55.9 °F 86% 29.90 in 2.5 mi East 6.9 mph - 0.14 in Rain Light Rain
5:01 AM 60.8 °F 55.4 °F 82% 29.90 in 3.0 mi ENE 5.8 mph - 0.01 in Rain Light Rain
5:28 AM 60.8 °F 55.4 °F 82% 29.90 in 7.0 mi ENE 8.1 mph - 0.01 in Rain Light Rain
5:53 AM 60.1 °F 55.9 °F 86% 29.91 in 10.0 mi Calm Calm - 0.02 in Rain Light Rain
6:53 AM 62.1 °F 57.0 °F 84% 29.93 in 10.0 mi Calm Calm - 0.00 in   Overcast
7:28 AM 62.6 °F 57.2 °F 82% 29.95 in 10.0 mi South 6.9 mph - N/A   Overcast
7:38 AM 62.6 °F 57.2 °F 82% 29.95 in 10.0 mi South 4.6 mph - N/A   Overcast
7:53 AM 64.0 °F 57.0 °F 78% 29.95 in 10.0 mi SSE 5.8 mph - N/A   Overcast
8:10 AM 64.4 °F 57.2 °F 77% 29.96 in 10.0 mi Calm Calm - 0.00 in Rain Light Rain
8:32 AM 64.4 °F 57.2 °F 77% 29.95 in 10.0 mi SSE 3.5 mph - 0.00 in   Overcast
8:46 AM 64.4 °F 57.2 °F 77% 29.96 in 10.0 mi SE 5.8 mph - 0.00 in Rain Light Rain
8:53 AM 64.0 °F 57.0 °F 78% 29.96 in 3.0 mi SE 5.8 mph - 0.02 in Rain Rain
8:57 AM 64.4 °F 57.2 °F 77% 29.97 in 1.8 mi SSE 8.1 mph - 0.02 in Rain Heavy Rain
9:03 AM 62.6 °F 57.2 °F 82% 29.97 in 0.8 mi South 6.9 mph - 0.12 in Rain Heavy Rain
9:10 AM 62.6 °F 55.4 °F 77% 29.97 in 1.0 mi South 5.8 mph - 0.14 in Rain Light Rain
9:15 AM 62.6 °F 55.4 °F 77% 29.97 in 3.0 mi South 3.5 mph - 0.14 in Rain Light Rain
9:53 AM 64.9 °F 57.0 °F 75% 29.97 in 10.0 mi SSE 5.8 mph - 0.14 in   Mostly Cloudy
10:14 AM 66.2 °F 57.2 °F 73% 29.97 in 10.0 mi Variable 4.6 mph - N/A   Mostly Cloudy
10:27 AM 66.2 °F 55.4 °F 68% 29.97 in 10.0 mi Variable 6.9 mph - N/A   Overcast
10:38 AM 66.2 °F 55.4 °F 68% 29.97 in 10.0 mi South 8.1 mph - N/A   Overcast
10:46 AM 66.2 °F 53.6 °F 64% 29.97 in 10.0 mi South 8.1 mph - N/A   Overcast
10:53 AM 66.9 °F 55.0 °F 66% 29.97 in 10.0 mi South 9.2 mph 16.1 mph N/A   Overcast
11:17 AM 68.0 °F 53.6 °F 60% 29.98 in 10.0 mi SSW 6.9 mph - N/A   Overcast
11:27 AM 68.0 °F 55.4 °F 64% 29.98 in 10.0 mi SSW 8.1 mph - N/A   Overcast
11:45 AM 68.0 °F 55.4 °F 64% 29.98 in 10.0 mi SSW 8.1 mph - N/A   Overcast
11:53 AM 68.0 °F 54.0 °F 61% 29.98 in 10.0 mi South 10.4 mph - N/A   Overcast
12:53 PM 70.0 °F 54.0 °F 57% 29.97 in 10.0 mi South 8.1 mph 16.1 mph N/A   Mostly Cloudy
1:53 PM 70.0 °F 51.1 °F 51% 29.97 in 10.0 mi SSW 6.9 mph - N/A   Overcast
2:53 PM 70.0 °F 52.0 °F 53% 29.96 in 10.0 mi SSW 8.1 mph - N/A   Overcast
3:53 PM 68.0 °F 52.0 °F 56% 29.96 in 10.0 mi SW 9.2 mph - N/A   Overcast
4:53 PM 68.0 °F 53.1 °F 59% 29.96 in 10.0 mi South 11.5 mph - N/A   Overcast
5:53 PM 66.9 °F 52.0 °F 59% 29.96 in 10.0 mi SSE 6.9 mph - N/A   Mostly Cloudy
6:53 PM 66.0 °F 53.1 °F 63% 29.96 in 10.0 mi South 8.1 mph - N/A   Overcast
7:53 PM 64.9 °F 55.0 °F 70% 29.98 in 10.0 mi South 9.2 mph - N/A   Overcast
8:53 PM 64.9 °F 55.0 °F 70% 29.99 in 10.0 mi SSE 4.6 mph - N/A   Overcast
9:53 PM 64.0 °F 55.0 °F 73% 30.01 in 10.0 mi South 6.9 mph - N/A   Scattered Clouds
10:53 PM 64.0 °F 55.0 °F 73% 30.01 in 10.0 mi Variable 3.5 mph - N/A   Overcast
11:53 PM 64.0 °F 55.0 °F 73% 30.01 in 10.0 mi South 4.6 mph - N/A   Overcast